"Time","Temp","Dewpoint","Humidity","Pressure","Direction","Speed","Gust","Precip","PrecipRate"
"00:04:57","67.4","66.2","96","30.03","341","0.4","2.4","0.00","0.20"
"00:09:59","67.4","66.2","96","30.03","341","0","0","0.00","0.14"
"00:14:56","67.3","66.1","96","30.03","341","0.3","1.2","0.01","0.10"
"00:19:57","67.3","66.1","96","30.03","341","0.4","2.4","0.01","0.06"
"00:24:57","67.3","66.1","96","30.03","341","0.3","2.4","0.01","0.03"
"00:29:57","67.2","66","96","30.03","341","0","1.2","0.01","0.02"
"00:34:58","67.2","66","96","30.03","341","0","1.2","0.01","0.02"
"00:39:59","67.1","65.9","96","30.03","341","0","0","0.01","0.01"
"00:44:59","67.1","65.9","96.2","30.03","341","0","0","0.01","0.01"
"00:49:56","67","66.1","97","30.02","341","0","0","0.01","0.01"
"00:54:56","67","66","96.6","30.02","341","0","1.2","0.01","0.01"
"00:59:57","66.9","65.7","96","30.02","341","0","0","0.01","0.01"
"01:04:57","66.9","65.7","96","30.02","341","0","0","0.01","0.01"
"01:09:59","66.8","65.6","96","30.02","341","0","0","0.01","0.01"
"01:14:57","66.8","65.6","96","30.02","341","0","0","0.01","0.01"
"01:19:58","66.7","65.6","96.3","30.02","341","0","2.4","0.01","0.00"
"01:24:58","66.6","65.7","97","30.02","341","0.1","2.3","0.01","0.00"
"01:29:59","66.6","65.7","97","30.02","341","0","0","0.01","0.00"
"01:34:59","66.6","65.7","97","30.01","341","0","0","0.01","0.00"
"01:39:57","66.6","65.7","97","30.01","341","0","0","0.01","0.00"
"01:44:57","66.5","65.6","97","30.01","341","0","0","0.01","0.00"
"01:49:58","66.5","65.6","97","30.01","341","0","0","0.01","0.00"
"01:54:59","66.6","65.7","97","30.01","341","0","0","0.01","0.00"
"01:59:56","66.6","65.7","97","30.01","341","0","0","0.01","0.00"
"02:04:56","66.5","65.6","97","30.01","341","0","0","0.01","0.00"
"02:09:58","66.6","65.7","97","30.01","341","0","0","0.01","0.00"
"02:14:59","66.7","65.8","97","30.01","341","0","0","0.01","0.00"
"02:19:56","66.8","65.9","97","30.01","341","0","0","0.01","0.00"
"02:24:56","66.9","66","97","30.01","341","0","0","0.01","0.00"
"02:29:57","67","66.1","97","30.01","341","0","0","0.01","0.00"
"02:34:57","67.1","66.2","97","30.01","341","0","0","0.01","0.00"
"02:39:59","67.1","66.2","97","30.01","341","0","0","0.01","0.00"
"02:44:59","67.1","66.2","97","30.01","341","0","0","0.01","0.00"
"02:49:57","67.1","66.2","97","30.01","341","0","0","0.01","0.00"
"02:54:56","67","66.1","97","30.01","341","0","0","0.01","0.00"
"02:59:58","67","66.1","97","30.01","341","0","0","0.01","0.00"
"03:04:58","66.9","66","97","30.01","341","0","0","0.01","0.00"
"03:09:56","66.9","66","97","30.01","341","0","0","0.01","0.00"
"03:14:57","66.9","66","97","30.01","341","0","0","0.01","0.00"
"03:19:58","66.8","65.9","97","30.01","341","0","0","0.01","0.00"
"03:24:58","66.8","65.9","97","30.01","341","0","0","0.01","0.00"
"03:29:59","66.7","65.8","97","30.01","341","0","0","0.01","0.00"
"03:34:56","66.7","65.8","97","30.01","341","0","0","0.01","0.00"
"03:39:57","66.7","65.8","97","30.01","341","0","0","0.01","0.00"
"03:44:58","66.8","65.9","97","30.01","341","0","0","0.01","0.00"
"03:49:59","66.7","65.8","97","30.01","341","0","0","0.01","0.00"
"03:54:59","66.7","65.8","97","30.01","341","0","0","0.01","0.00"
"03:59:57","66.6","65.7","97","30.01","341","0","0","0.01","0.00"
"04:04:57","66.6","65.7","97","30.01","341","0","0","0.01","0.00"
"04:09:58","66.6","65.7","97","30.01","341","0","0","0.01","0.00"
"04:14:59","66.6","65.8","97.3","30.01","341","0","0","0.01","0.00"
"04:19:59","66.6","66","97.8","30.01","341","0","0","0.01","0.00"
"04:24:56","66.6","66","97.8","30.01","341","0","0","0.01","0.00"
"04:29:56","66.6","65.9","97.7","30.01","341","0","0","0.01","0.00"
"04:34:57","66.6","65.8","97.5","30.01","341","0","0","0.01","0.00"
"04:39:59","66.6","66","98","30.01","341","0","0","0.01","0.00"
"04:44:59","66.6","66","98","30.02","341","0","0","0.01","0.00"
"04:49:59","66.5","65.9","97.9","30.02","341","0","0","0.01","0.00"
"04:54:59","66.5","65.9","98","30.02","341","0","0","0.01","0.00"
"04:59:59","66.5","65.6","97.1","30.03","341","0","0","0.01","0.00"
"05:04:59","66.6","65.9","97.9","30.03","341","0","0","0.01","0.00"
"05:09:57","66.6","66","98","30.03","341","0","0","0.01","0.00"
"05:14:59","66.6","66","98","30.03","341","0","0","0.01","0.00"
"05:19:59","66.6","66","98","30.03","341","0","0","0.01","0.00"
"05:24:59","66.7","66.1","98","30.03","341","0","0","0.01","0.00"
"05:29:56","66.8","66.2","98","30.04","341","0","0","0.01","0.00"
"05:34:56","66.8","66.2","98","30.04","341","0","0","0.01","0.00"
"05:39:57","66.9","66.3","98","30.04","341","0","0","0.01","0.00"
"05:44:58","66.9","66.3","98","30.04","341","0","0","0.01","0.00"
"05:49:58","66.9","66.3","98","30.04","341","0","0","0.01","0.00"
"05:54:58","66.9","66.3","98","30.04","341","0","0","0.01","0.00"
"05:59:58","66.9","66.3","98","30.05","341","0","0","0.01","0.00"
"06:04:58","66.9","66.3","98","30.05","341","0","0","0.01","0.00"
"06:09:57","66.9","66.3","98","30.05","341","0","0","0.01","0.00"
"06:14:59","66.9","66.3","98","30.05","341","0","0","0.01","0.00"
"06:19:58","66.9","66.3","98","30.05","341","0","0","0.01","0.00"
"06:24:58","67","66.4","98","30.05","341","0","0","0.01","0.00"
"06:29:58","67","66.4","98","30.06","341","0","0","0.01","0.00"
"06:34:58","67","66.4","98","30.06","341","0","0","0.01","0.00"
"06:39:59","67","66.4","98","30.06","341","0","0","0.01","0.00"
"06:44:59","67.1","66.5","98","30.06","5","0","0","0.01","0.00"
"06:49:59","67.3","66.7","98","30.06","5","0","0","0.01","0.00"
"06:54:59","67.5","66.9","98","30.06","5","0","0","0.01","0.00"
"06:59:59","67.7","67.1","98","30.06","5","0","0","0.01","0.00"
"07:04:59","67.8","67.2","98","30.06","5","0","0","0.01","0.00"
"07:09:57","67.9","67.3","98","30.06","5","0","0","0.01","0.00"
"07:14:57","68","67.4","98","30.06","5","0","0","0.01","0.00"
"07:19:57","68.1","67.5","98","30.06","5","0","0","0.01","0.00"
"07:24:57","68.1","67.5","98","30.06","243","0","0","0.01","0.00"
"07:29:57","68.2","67.4","97.5","30.06","243","0","0","0.01","0.00"
"07:34:57","68.3","67.4","97","30.06","126","0.1","2.4","0.01","0.00"
"07:39:57","68.5","67.6","97","30.06","86","0.1","1.2","0.01","0.00"
"07:44:57","68.6","67.7","97","30.06","82","0","0","0.01","0.00"
"07:49:56","68.8","67.7","96.4","30.06","82","0","0","0.01","0.00"
"07:54:56","69","67.8","96","30.06","82","0","0","0.01","0.00"
"07:59:57","69.2","68","96","30.06","81","0","1.2","0.01","0.00"
"08:04:57","69.4","68","95.1","30.06","81","0.5","2.4","0.01","0.00"
"08:09:59","69.7","68.2","95","30.06","80","0.2","2.4","0.01","0.00"
"08:14:59","69.9","68.4","94.9","30.06","99","0.8","2.4","0.01","0.00"
"08:19:59","70.2","68.4","94","30.06","107","0.9","2.4","0.01","0.00"
"08:24:59","70.5","68.7","94","30.06","107","0.3","2.4","0.01","0.00"
"08:29:58","70.7","68.7","93.1","30.06","21","0.5","2.4","0.01","0.00"
"08:34:58","70.9","68.7","92.5","30.06","15","0.5","3.6","0.01","0.00"
"08:39:57","71.1","68.7","92","30.06","80","0.4","3.5","0.01","0.00"
"08:44:56","71.3","68.8","91.7","30.07","82","0.6","2.4","0.01","0.00"
"08:49:59","71.4","68.5","90.7","30.07","46","0.6","2.4","0.01","0.00"
"08:54:58","71.5","68.6","90.5","30.07","42","0.5","2.4","0.01","0.00"
"08:59:57","71.8","68.8","90.4","30.07","49","0.4","1.2","0.01","0.00"
"09:04:56","72.1","69","90","30.07","57","0.3","2.4","0.01","0.00"
"09:09:58","72.3","69","89.3","30.07","65","1","2.4","0.01","0.00"
"09:14:59","72.6","69.1","88.7","30.07","87","0.7","2.4","0.01","0.00"
"09:19:58","72.9","69.3","88.3","30.07","46","0.9","4.8","0.01","0.00"
"09:24:57","73.1","69","87","30.07","54","0.7","4.6","0.01","0.00"
"09:29:56","73.5","69.3","86.9","30.08","51","0.8","3.6","0.01","0.00"
"09:34:59","73.8","69.3","86","30.08","81","0.4","4.8","0.01","0.00"
"09:39:59","74","69.3","85.3","30.08","104","0.6","2.4","0.01","0.00"
"09:44:56","74.3","69.4","84.8","30.08","104","0.9","3.6","0.01","0.00"
"09:49:59","74.6","69.4","84.2","30.08","58","0.8","3.6","0.01","0.00"
"09:54:59","74.7","69.4","83.7","30.08","68","1.6","6","0.01","0.00"
"09:59:58","74.9","69.4","83.1","30.08","43","1.4","4.8","0.01","0.00"
"10:04:57","75.1","69.5","82.8","30.08","77","2","8.4","0.01","0.00"
"10:09:59","75.4","69.7","82.7","30.08","142","1.4","4.8","0.01","0.00"
"10:14:59","75.7","69.9","82.4","30.08","48","1","4.6","0.01","0.00"
"10:19:59","76","69.7","81.1","30.08","92","1.3","3.6","0.01","0.00"
"10:24:58","76.2","69.4","79.6","30.08","95","2.8","7.2","0.01","0.00"
"10:29:58","76.1","69","78.8","30.08","66","2","3.6","0.01","0.00"
"10:34:56","76.4","69.4","79","30.08","87","1.7","8.4","0.01","0.00"
"10:39:57","76.7","69.5","78.5","30.08","115","1.6","6","0.01","0.00"
"10:44:56","77.3","69.8","77.7","30.08","79","2","6","0.01","0.00"
"10:49:56","77.6","69.3","75.8","30.08","124","2.3","7.2","0.01","0.00"
"10:54:59","77.7","69.5","76","30.08","126","2.1","8.4","0.01","0.00"
"10:59:59","78","69.6","75.5","30.08","98","2.4","8.1","0.01","0.00"
"11:04:58","78.1","69.4","74.9","30.08","104","2.5","4.8","0.01","0.00"
"11:09:56","77.7","69","74.8","30.08","90","2.1","4.8","0.01","0.00"
"11:14:57","77.8","69.2","75.1","30.08","87","2.3","10.8","0.01","0.00"
"11:19:57","78.7","69.6","73.7","30.08","46","1.3","3.6","0.01","0.00"
"11:24:57","78.3","68.8","72.6","30.08","48","1.8","6","0.01","0.00"
"11:29:56","78.2","69.1","74","30.08","69","2.1","6","0.01","0.00"
"11:34:57","79.4","70.4","74","30.08","47","1.7","3.6","0.01","0.00"
"11:39:59","79.4","69.9","72.7","30.08","33","1.7","3.6","0.01","0.00"
"11:44:56","79.1","68.8","70.8","30.08","84","2.5","7.2","0.01","0.00"
"11:49:57","79.1","67.8","68.4","30.08","105","2.8","12","0.01","0.00"
"11:54:58","79.1","67.8","68.3","30.08","113","3.3","7.2","0.01","0.00"
"11:59:59","79.3","67.8","68","30.08","88","3.1","7.2","0.01","0.00"
"12:04:56","79.7","67","65.3","30.08","118","3.8","15","0.01","0.00"
"12:09:56","80.2","67.6","65.6","30.08","75","2.1","7.2","0.01","0.00"
"12:14:58","79.8","67.2","65.6","30.08","83","2.5","6.9","0.01","0.00"
"12:19:59","79.5","67.1","66","30.08","121","2.9","8.4","0.01","0.00"
"12:24:56","79.9","68.7","68.8","30.08","100","1.8","4.6","0.01","0.00"
"12:29:57","80","68.4","67.9","30.09","120","2.3","8.4","0.01","0.00"
"12:34:57","79.8","68.5","68.4","30.09","51","2","6","0.01","0.00"
"12:39:59","79.9","68","67.1","30.09","65","2","4.8","0.01","0.00"
"12:44:56","79.6","67.7","67.2","30.09","124","3.5","8.4","0.01","0.00"
"12:49:58","79.7","67.8","67","30.08","115","2.6","6","0.01","0.00"
"12:54:59","79.6","67.9","67.6","30.08","93","3.1","7.2","0.01","0.00"
"12:59:59","79.6","68.2","68.3","30.08","113","1.8","4.8","0.01","0.00"
"13:04:56","80.8","69","67.5","30.08","75","2.2","12","0.01","0.00"
"13:09:56","81","68.1","64.8","30.08","94","3.4","11.5","0.01","0.00"
"13:14:58","80.7","68.2","65.8","30.08","84","2.6","10.8","0.01","0.00"
"13:19:59","80.4","67.9","65.8","30.08","104","3.2","10.4","0.01","0.00"
"13:24:56","80.6","68.5","66.6","30.08","112","3.3","10.8","0.01","0.00"
"13:29:57","80.3","67.8","65.9","30.08","82","2","10.4","0.01","0.00"
"13:34:58","79.8","68.1","67.4","30.08","79","2.5","7.2","0.01","0.00"
"13:39:55","80.1","68.7","68.3","30.08","76","2.9","12","0.01","0.00"
"13:44:56","80.2","68.2","66.9","30.08","125","4.2","12","0.01","0.00"
"13:49:58","80.1","68.5","67.8","30.08","79","3.1","13.2","0.01","0.00"
"13:54:59","80","68.5","68","30.08","97","3.9","12","0.01","0.00"
"13:59:56","79.7","68.6","68.9","30.09","65","2.5","8.4","0.01","0.00"
"14:04:57","79.4","68.4","69.3","30.09","76","2.9","6","0.01","0.00"
"14:09:57","79.3","68.6","69.8","30.09","92","2.7","9.6","0.01","0.00"
"14:14:59","79.1","68.4","69.7","30.09","87","2.6","7.2","0.01","0.00"
"14:19:59","78.8","67.8","69.2","30.09","103","3.6","8.4","0.01","0.00"
"14:24:58","78.3","67.8","70.3","30.09","78","2.5","8.4","0.01","0.00"
"14:29:58","78.4","68.1","70.8","30.09","95","2.7","15","0.01","0.00"
"14:34:58","78.2","68","71","30.08","57","1.3","15","0.01","0.00"
"14:39:59","78.4","68.1","70.6","30.08","48","2.1","6","0.01","0.00"
"14:44:59","78.4","67.7","69.7","30.08","45","1.3","4.8","0.01","0.00"
"14:49:59","78.1","67.4","69.7","30.08","98","2.4","8.4","0.01","0.00"
"14:54:59","78","67.8","71","30.08","43","1.4","6","0.01","0.00"
"14:59:59","78","67.6","70.3","30.08","65","2.5","7.2","0.01","0.00"
"15:04:58","77.9","68","71.7","30.08","18","1.8","4.8","0.01","0.00"
"15:09:56","78.1","68.1","71.6","30.08","82","2","4.8","0.01","0.00"
"15:14:56","78","67.8","71.1","30.08","88","2.8","13.2","0.01","0.00"
"15:19:56","78.3","68.5","71.9","30.08","36","1.6","4.8","0.01","0.00"
"15:24:59","78.6","68","70.2","30.08","61","2.6","6","0.01","0.00"
"15:29:59","78.1","67.6","70.3","30.08","61","2.3","8.4","0.01","0.00"
"15:34:57","78.6","68.2","70.5","30.08","53","2.3","9.6","0.01","0.00"
"15:39:57","78.6","67.7","69.3","30.08","76","2.6","6","0.01","0.00"
"15:44:58","78.6","68","69.8","30.08","87","2.6","4.8","0.01","0.00"
"15:49:57","78.7","67.8","69.2","30.08","76","2","4.8","0.01","0.00"
"15:54:58","78.9","68","69.3","30.08","123","2","13.2","0.01","0.00"
"15:59:58","78.6","67.6","69","30.08","88","3.2","10.8","0.01","0.00"
"16:04:57","78.2","67.6","70","30.08","93","2.3","8.1","0.01","0.00"
"16:09:59","78","67.4","70","30.08","108","3.3","12","0.01","0.00"
"16:14:58","78","67.5","70.2","30.08","89","3","8.4","0.01","0.00"
"16:19:58","78.3","67.9","70.5","30.08","86","2.1","6.9","0.01","0.00"
"16:24:58","78.3","67.8","70.4","30.08","70","1.7","4.6","0.01","0.00"
"16:29:57","78.4","67.8","69.8","30.08","52","1.9","3.6","0.01","0.00"
"16:34:57","78.3","67.7","70.2","30.08","30","1.4","3.6","0.01","0.00"
"16:39:57","78.2","67.6","69.9","30.08","43","1.8","6","0.01","0.00"
"16:44:57","78","67.6","70.5","30.08","18","1.3","3.6","0.01","0.00"
"16:49:57","78.1","67.9","71","30.08","96","2","9.6","0.01","0.00"
"16:54:57","78.4","68","70.5","30.08","51","2.4","4.8","0.01","0.00"
"16:59:58","78.8","68","69.4","30.08","57","2.2","8.4","0.01","0.00"
"17:04:56","79.2","68.4","69.6","30.08","67","1.7","3.6","0.01","0.00"
"17:09:58","78.6","67.5","68.8","30.08","90","2.4","6","0.01","0.00"
"17:14:59","77.9","67.2","69.9","30.09","21","1.7","4.8","0.01","0.00"
"17:19:58","77.3","66.9","70.3","30.09","131","1.8","3.6","0.01","0.00"
"17:24:57","77","66.9","70.8","30.09","126","2.3","15","0.01","0.00"
"17:29:57","76.8","66.7","71","30.09","126","2","6","0.01","0.00"
"17:34:56","76.7","66.3","70.4","30.08","125","2.4","8.4","0.01","0.00"
"17:39:57","76.5","65.9","69.8","30.08","118","3","12","0.01","0.00"
"17:44:56","76.4","65.7","69.5","30.08","104","2.8","6","0.01","0.00"
"17:49:59","76.4","65.7","69.6","30.08","133","2.7","7.2","0.01","0.00"
"17:54:59","76.3","65.9","70.2","30.08","108","2.1","7.2","0.01","0.00"
"17:59:58","76.3","65.9","70.1","30.08","9","1.5","4.8","0.01","0.00"
"18:04:57","76.3","65.9","70.4","30.08","98","1.3","4.8","0.01","0.00"
"18:09:59","76.2","65.7","70.1","30.08","98","1.9","4.8","0.01","0.00"
"18:14:56","76","65.7","70.4","30.08","72","1.9","4.8","0.01","0.00"
"18:19:59","75.9","65.5","70.1","30.08","39","1.9","4.8","0.01","0.00"
"18:24:59","75.7","65.2","70","30.08","33","1.8","4.8","0.01","0.00"
"18:29:58","75.6","65.3","70.5","30.09","113","2.1","6","0.01","0.00"
"18:34:57","75.5","65.4","71","30.09","94","1.9","8.4","0.01","0.00"
"18:39:57","75.5","65.4","71","30.09","75","1.6","6.9","0.01","0.00"
"18:44:57","75.4","65.3","71","30.09","56","1.4","6","0.01","0.00"
"18:49:56","75.3","65.2","71","30.09","93","2.8","5.8","0.01","0.00"
"18:54:56","75.2","65.1","71","30.09","104","1.7","7.2","0.01","0.00"
"18:59:59","75.1","65.2","71.2","30.09","54","1.6","8.4","0.01","0.00"
"19:04:59","75.1","65.1","71","30.09","19","1.8","4.8","0.01","0.00"
"19:09:57","75","65.1","71.3","30.09","33","1.2","4.8","0.01","0.00"
"19:14:58","75","65.3","71.8","30.09","64","1","6","0.01","0.00"
"19:19:57","74.9","65.2","71.8","30.09","69","1.6","6","0.01","0.00"
"19:24:57","74.8","64.8","71.1","30.09","75","1.9","4.8","0.01","0.00"
"19:29:56","74.7","64.7","71","30.10","55","1.6","3.6","0.01","0.00"
"19:34:56","74.6","64.6","71","30.10","89","1.9","4.8","0.01","0.00"
"19:39:56","74.6","64.6","71","30.10","49","1.3","3.6","0.01","0.00"
"19:44:59","74.4","64.7","71.6","30.10","47","0.9","3.5","0.01","0.00"
"19:49:59","74.3","65.1","73","30.10","70","1.4","3.6","0.01","0.00"
"19:54:59","74.1","65.3","74","30.10","64","0.7","2.4","0.01","0.00"
"19:59:59","73.9","65.1","74","30.10","32","0.5","2.4","0.01","0.00"
"20:04:58","73.7","65.2","74.7","30.10","36","0.7","3.6","0.01","0.00"
"20:09:56","73.5","65.1","75","30.10","33","0.4","3.6","0.01","0.00"
"20:14:57","73.3","64.9","75","30.10","17","0.7","3.6","0.01","0.00"
"20:19:57","73.1","64.9","75.4","30.10","33","0.9","3.6","0.01","0.00"
"20:24:57","72.9","64.9","76","30.10","6","1.1","4.8","0.01","0.00"
"20:29:57","72.8","64.9","76.3","30.10","66","1.4","3.6","0.01","0.00"
"20:34:56","72.7","65.1","77","30.09","14","0.7","3.5","0.01","0.00"
"20:39:57","72.6","65","77","30.09","16","1","3.6","0.01","0.00"
"20:44:58","72.5","64.9","77.1","30.09","27","1","3.6","0.01","0.00"
"20:49:59","72.3","65.1","78","30.09","5","1.1","6","0.01","0.00"
"20:54:59","72.2","65","78","30.09","107","1","7.2","0.01","0.00"
"20:59:59","72.1","65.1","78.7","30.09","35","0.7","3.6","0.01","0.00"
"21:04:59","72","65.1","79","30.09","74","1.5","4.8","0.01","0.00"
"21:09:58","71.9","65","79","30.09","84","0.9","3.6","0.01","0.00"
"21:14:59","71.8","64.9","79","30.10","9","0.5","3.5","0.01","0.00"
"21:19:57","71.7","64.8","79","30.10","33","0.7","3.6","0.01","0.00"
"21:24:57","71.7","64.8","79","30.10","38","0.6","3.5","0.01","0.00"
"21:29:58","71.6","64.7","79","30.11","38","1.1","3.6","0.01","0.00"
"21:34:58","71.6","64.5","78.4","30.11","38","0.9","3.5","0.01","0.00"
"21:39:56","71.5","64.4","78.2","30.11","65","0.8","3.6","0.01","0.00"
"21:44:57","71.5","64.4","78.3","30.11","128","0.5","3.5","0.01","0.00"
"21:49:57","71.4","64.2","78","30.11","130","0.7","6","0.01","0.00"
"21:54:58","71.4","64.2","77.9","30.11","132","1.2","6","0.01","0.00"
"21:59:58","71.4","63.8","77","30.12","114","0.7","4.8","0.01","0.00"
"22:04:58","71.4","63.8","77","30.12","128","1.6","4.8","0.01","0.00"
"22:09:57","71.4","63.7","76.8","30.12","112","1.6","3.6","0.01","0.00"
"22:14:58","71.3","63.6","76.6","30.12","129","1","6","0.01","0.00"
"22:19:59","71.2","63.6","77","30.12","131","0.2","3.6","0.01","0.00"
"22:24:59","71.1","63.5","77","30.12","130","0.2","2.3","0.01","0.00"
"22:29:56","70.9","63.3","77","30.12","130","0.3","2.4","0.01","0.00"
"22:34:57","70.9","63.3","77","30.12","130","0","1.2","0.01","0.00"
"22:39:58","70.8","63.3","77.2","30.12","130","0","0","0.01","0.00"
"22:44:59","70.7","63.2","77.4","30.12","79","0.2","2.4","0.01","0.00"
"22:49:56","70.6","63","77","30.12","65","0.4","2.4","0.01","0.00"
"22:54:56","70.6","63","77","30.12","39","0.5","3.6","0.01","0.00"
"22:59:57","70.6","63","77","30.12","34","0","0","0.01","0.00"
"23:04:57","70.6","63","77","30.12","34","0","0","0.01","0.00"
"23:09:59","70.5","62.9","77","30.12","25","0.2","2.4","0.01","0.00"
"23:14:57","70.4","62.8","77","30.12","25","0.3","2.4","0.01","0.00"
"23:19:57","70.4","63","77.7","30.11","25","0.1","2.4","0.01","0.00"
"23:24:58","70.3","62.9","77.5","30.11","28","0.2","2.4","0.01","0.00"
"23:29:59","70.3","63.1","78","30.12","32","0","1.2","0.01","0.00"
"23:34:59","70.2","63","78","30.12","23","0.3","3.6","0.01","0.00"
"23:39:57","70.1","62.8","77.6","30.12","7","0.3","3.6","0.01","0.00"
"23:44:57","70.1","62.6","77.1","30.12","65","0.2","2.4","0.01","0.00"
"23:49:58","70.1","62.6","77","30.12","66","0.3","2.4","0.01","0.00"
"23:54:59","70.1","62.4","76.6","30.12","62","0.5","2.4","0.01","0.00"
